Location: B?dimalle
(17.1788°N, 80.5377°E)
Time: 12:50:01
(UTC+00:00)

Courier 1B Rocket - Pass Details

Date: 14 December 2025
Orbit: 920 x 1201 km, 28.2° (Epoch: 25 January)

Event Time Altitude Azimuth Distance (km) Brightness Sun altitude
Rises 13:23:15 0° 227° (SW) 4,031 9.5 -18.0°
Reaches altitude 10° 13:26:11 10° 222° (SW) 3,093 8.5 -18.6°
Maximum altitude 13:33:32 47° 150° (SSE) 1,544 5.9 -20.3°
Enters shadow 13:36:57 30° 98° (E) 1,992 6.1 -21.1°
